Location: ????????
(55.0808°N, 38.5463°E)
Time: 01:58:06
(UTC+00:00)

Nimbus 3 Rocket - Pass Details

Date: 20 September 2024
Orbit: 1072 x 1131 km, 99.9° (Epoch: 03 October)

Event Time Altitude Azimuth Distance (km) Brightness Sun altitude
Rises 23:49:57 0° 18° (NNE) 3,924 9.2 -26.4°
Reaches altitude 10° 23:52:59 10° 6° (N) 2,955 8.2 -26.1°
Maximum altitude 23:58:08 25° 315° (NW) 2,055 6.6 -25.5°
Enters shadow 23:59:59 22° 291° (WNW) 2,188 6.6 -25.4°
